,,,PA_Meas_PMT16A,,PR_Meas_QMR101_102,,RH_Meas_QMH101,,SR_Meas_QMS101,,TA_Meas_QMH101,,GenWind,,GenWind,
date,time,status,PA,status,PR,status,RH,status,SR,status,TA,status,DirAvg,status,SpdAvg,
2008-09-06, 00:00:04,VALID,1009.62,VALID,0,VALID,94.4221,VALID,0.105969,VALID,24.2378,VALID,135,VALID,1.39766,
2008-09-06, 00:01:04,VALID,1009.62,VALID,0,VALID,94.4145,VALID,0.105969,VALID,24.2573,VALID,135,VALID,0.853516,
2008-09-06, 00:02:04,VALID,1009.64,VALID,0,VALID,94.3763,VALID,0.105969,VALID,24.2378,VALID,161,VALID,0.907812,
2008-09-06, 00:03:04,VALID,1009.64,VALID,0,VALID,94.3611,VALID,0.105969,VALID,24.2573,VALID,135,VALID,1.26016,
2008-09-06, 00:04:04,VALID,1009.63,VALID,0,VALID,94.3458,VALID,0,VALID,24.2378,VALID,131,VALID,1.43008,
2008-09-06, 00:05:04,VALID,1009.6,VALID,0,VALID,94.3153,VALID,0,VALID,24.2396,VALID,152,VALID,1.53945,
2008-09-06, 00:06:04,VALID,1009.62,VALID,0,VALID,94.2848,VALID,0,VALID,24.2378,VALID,161,VALID,1.17031,
2008-09-06, 00:07:04,VALID,1009.63,VALID,0,VALID,94.2238,VALID,0,VALID,24.2378,VALID,130,VALID,1.40273,
2008-09-06, 00:08:04,VALID,1009.6,VALID,0,VALID,94.2086,VALID,0,VALID,24.2183,VALID,116,VALID,1.35781,
2008-09-06, 00:09:04,VALID,1009.62,VALID,0,VALID,94.1704,VALID,0,VALID,24.1988,VALID,109,VALID,0.826953,
2008-09-06, 00:10:04,VALID,1009.6,VALID,0,VALID,94.1933,VALID,0.105969,VALID,24.2378,VALID,161,VALID,1.15352,
2008-09-06, 00:11:04,VALID,1009.62,VALID,0,VALID,94.1171,VALID,0,VALID,24.1793,VALID,165,VALID,1.53516,
2008-09-06, 00:12:04,VALID,1009.61,VALID,0,VALID,94.1247,VALID,0,VALID,24.1793,VALID,141,VALID,1.09102,
2008-09-06, 00:13:04,VALID,1009.63,VALID,0,VALID,94.1094,VALID,0,VALID,24.1812,VALID,151,VALID,1.18984,
2008-09-06, 00:14:04,VALID,1009.6,VALID,0,VALID,94.0637,VALID,0.105969,VALID,24.1793,VALID,143,VALID,2.21484,
2008-09-06, 00:15:04,VALID,1009.6,VALID,0,VALID,94.0332,VALID,0.105969,VALID,24.1793,VALID,150,VALID,1.44141,
2008-09-06, 00:16:04,VALID,1009.6,VALID,0,VALID,94.0103,VALID,0.105969,VALID,24.1793,VALID,154,VALID,1.81328,
2008-09-06, 00:17:04,VALID,1009.59,VALID,0,VALID,93.9798,VALID,0.105969,VALID,24.2007,VALID,149,VALID,1.72227,
2008-09-06, 00:18:04,VALID,1009.56,VALID,0,VALID,93.9645,VALID,0.105969,VALID,24.1988,VALID,125,VALID,1.45938,
2008-09-06, 00:19:04,VALID,1009.55,VALID,0,VALID,93.9798,VALID,0.105969,VALID,24.1812,VALID,168,VALID,0.945703,
2008-09-06, 00:20:04,VALID,1009.55,VALID,0,VALID,93.9798,VALID,0.105969,VALID,24.1599,VALID,150,VALID,1.29648,
2008-09-06, 00:21:04,VALID,1009.57,VALID,0,VALID,93.9874,VALID,0,VALID,24.1812,VALID,148,VALID,1.09375,
2008-09-06, 00:22:04,VALID,1009.56,VALID,0,VALID,93.9874,VALID,0.105969,VALID,24.1422,VALID,158,VALID,1.54766,
2008-09-06, 00:23:04,VALID,1009.57,VALID,0,VALID,93.9569,VALID,0.105969,VALID,24.1422,VALID,145,VALID,1.60078,
2008-09-06, 00:24:04,VALID,1009.56,VALID,0,VALID,93.9569,VALID,0.105969,VALID,24.1209,VALID,137,VALID,1.18047,
2008-09-06, 00:25:04,VALID,1009.56,VALID,0,VALID,93.9645,VALID,0,VALID,24.1617,VALID,143,VALID,0.855859,
2008-09-06, 00:26:04,VALID,1009.56,VALID,0,VALID,93.9645,VALID,0.105969,VALID,24.1209,VALID,146,VALID,1.4457,
2008-09-06, 00:27:04,VALID,1009.55,VALID,0,VALID,93.9722,VALID,0.105969,VALID,24.1404,VALID,162,VALID,0.780859,
2008-09-06, 00:28:04,VALID,1009.57,VALID,0,VALID,93.9569,VALID,0.105969,VALID,24.1209,VALID,125,VALID,0.976953,
2008-09-06, 00:29:04,VALID,1009.56,VALID,0,VALID,93.934,VALID,0.105969,VALID,24.1209,VALID,110,VALID,0.941797,
2008-09-06, 00:30:04,VALID,1009.58,VALID,0,VALID,93.934,VALID,0,VALID,24.1227,VALID,150,VALID,1.05117,
2008-09-06, 00:31:04,VALID,1009.56,VALID,0,VALID,93.9188,VALID,0.105969,VALID,24.1227,VALID,109,VALID,1.49766,
2008-09-06, 00:32:04,VALID,1009.55,VALID,0,VALID,93.8883,VALID,0,VALID,24.1227,VALID,130,VALID,1.25781,
2008-09-06, 00:33:04,VALID,1009.57,VALID,0,VALID,93.873,VALID,0,VALID,24.1227,VALID,150,VALID,1.21523,
2008-09-06, 00:34:04,VALID,1009.56,VALID,0,VALID,93.8502,VALID,0,VALID,24.1227,VALID,126,VALID,1.04492,
2008-09-06, 00:35:04,VALID,1009.55,VALID,0,VALID,93.8502,VALID,0.105969,VALID,24.1014,VALID,151,VALID,0.772656,
2008-09-06, 00:36:04,VALID,1009.52,VALID,0,VALID,93.8349,VALID,0.105969,VALID,24.1014,VALID,131,VALID,1.28008,
2008-09-06, 00:37:04,VALID,1009.5,VALID,0,VALID,93.8807,VALID,0,VALID,24.1209,VALID,136,VALID,1.30508,
2008-09-06, 00:38:04,VALID,1009.5,VALID,0,VALID,93.8349,VALID,0.105969,VALID,24.1014,VALID,138,VALID,0.790625,
2008-09-06, 00:39:04,VALID,1009.5,VALID,0,VALID,93.7891,VALID,0,VALID,24.1227,VALID,118,VALID,0.876562,
2008-09-06, 00:40:04,VALID,1009.46,VALID,0,VALID,93.7663,VALID,0,VALID,24.1032,VALID,151,VALID,1.3082,
2008-09-06, 00:41:04,VALID,1009.45,VALID,0,VALID,93.7968,VALID,0,VALID,24.1032,VALID,132,VALID,1.26602,
2008-09-06, 00:42:04,VALID,1009.42,VALID,0,VALID,93.7434,VALID,0.105969,VALID,24.0837,VALID,132,VALID,1.47461,
2008-09-06, 00:43:04,VALID,1009.39,VALID,0,VALID,93.812,VALID,0,VALID,24.0837,VALID,128,VALID,0.954297,
2008-09-06, 00:44:04,VALID,1009.39,VALID,0,VALID,93.812,VALID,0.105969,VALID,24.0837,VALID,137,VALID,1.22031,
2008-09-06, 00:45:04,VALID,1009.37,VALID,0,VALID,93.812,VALID,0,VALID,24.0837,VALID,96,VALID,1.20195,
2008-09-06, 00:46:04,VALID,1009.37,VALID,0,VALID,93.7968,VALID,0,VALID,24.0643,VALID,132,VALID,1.62031,
2008-09-06, 00:47:04,VALID,1009.34,VALID,0,VALID,93.7434,VALID,0,VALID,24.0837,VALID,156,VALID,1.23281,
2008-09-06, 00:48:04,VALID,1009.34,VALID,0,VALID,93.7586,VALID,0,VALID,24.0837,VALID,115,VALID,1.23164,
2008-09-06, 00:49:04,VALID,1009.33,VALID,0,VALID,93.8044,VALID,0,VALID,24.0837,VALID,123,VALID,0.771875,
2008-09-06, 00:50:04,VALID,1009.3,VALID,0,VALID,93.8044,VALID,0,VALID,24.0856,VALID,126,VALID,0.903516,
2008-09-06, 00:51:04,VALID,1009.31,VALID,0,VALID,93.8196,VALID,0,VALID,24.0643,VALID,132,VALID,0.831641,
2008-09-06, 00:52:04,VALID,1009.27,VALID,0,VALID,93.7891,VALID,0,VALID,24.0448,VALID,125,VALID,0.878125,
2008-09-06, 00:53:04,VALID,1009.26,VALID,0,VALID,93.7586,VALID,0,VALID,24.0466,VALID,129,VALID,1.66875,
2008-09-06, 00:54:04,VALID,1009.25,VALID,0,VALID,93.7281,VALID,0,VALID,24.0466,VALID,133,VALID,1.5418,
2008-09-06, 00:55:04,VALID,1009.24,VALID,0,VALID,93.69,VALID,0,VALID,24.0856,VALID,151,VALID,0.632031,
2008-09-06, 00:56:04,VALID,1009.27,VALID,0,VALID,93.6748,VALID,0,VALID,24.0253,VALID,123,VALID,1.28672,
2008-09-06, 00:57:04,VALID,1009.26,VALID,0,VALID,93.69,VALID,0,VALID,24.0448,VALID,128,VALID,1.15273,
2008-09-06, 00:58:04,VALID,1009.25,VALID,0,VALID,93.6366,VALID,0,VALID,24.0253,VALID,128,VALID,1.4043,
2008-09-06, 00:59:04,VALID,1009.25,VALID,0,VALID,93.6061,VALID,0,VALID,24.0448,VALID,134,VALID,1.00859,
2008-09-06, 01:00:04,VALID,1009.25,VALID,0,VALID,93.5756,VALID,0,VALID,24.0253,VALID,146,VALID,1.1168,
2008-09-06, 01:01:04,VALID,1009.24,VALID,0,VALID,93.5222,VALID,0,VALID,24.0253,VALID,138,VALID,0.716797,
2008-09-06, 01:02:04,VALID,1009.25,VALID,0,VALID,93.5604,VALID,0,VALID,24.0058,VALID,139,VALID,1.05742,
2008-09-06, 01:03:04,VALID,1009.25,VALID,0,VALID,93.5832,VALID,0,VALID,24.0058,VALID,147,VALID,0.736719,
2008-09-06, 01:04:04,VALID,1009.22,VALID,0,VALID,93.5299,VALID,0,VALID,24.0058,VALID,146,VALID,1.09414,
2008-09-06, 01:05:04,VALID,1009.25,VALID,0,VALID,93.568,VALID,0,VALID,24.0058,VALID,95,VALID,0.647656,
2008-09-06, 01:06:04,VALID,1009.23,VALID,0,VALID,93.6061,VALID,0,VALID,24.0253,VALID,128,VALID,0.791406,
2008-09-06, 01:07:04,VALID,1009.25,VALID,0,VALID,93.6366,VALID,0,VALID,24.0253,VALID,116,VALID,0.921094,
2008-09-06, 01:08:04,VALID,1009.25,VALID,0,VALID,93.5985,VALID,0,VALID,24.0058,VALID,146,VALID,0.805469,
2008-09-06, 01:09:04,VALID,1009.25,VALID,0,VALID,93.6137,VALID,0,VALID,24.0058,VALID,107,VALID,0.581641,
2008-09-06, 01:10:04,VALID,1009.28,VALID,0,VALID,93.5985,VALID,0,VALID,24.0076,VALID,148,VALID,1.04766,
2008-09-06, 01:11:04,VALID,1009.26,VALID,0,VALID,93.4994,VALID,0,VALID,24.0076,VALID,137,VALID,1.08945,
2008-09-06, 01:12:04,VALID,1009.29,VALID,0,VALID,93.4384,VALID,0,VALID,24.0076,VALID,140,VALID,0.673828,
2008-09-06, 01:13:04,VALID,1009.28,VALID,0,VALID,93.4765,VALID,0,VALID,24.0076,VALID,118,VALID,0.737109,
2008-09-06, 01:14:04,VALID,1009.29,VALID,0,VALID,93.4612,VALID,0,VALID,23.9863,VALID,96,VALID,0.858984,
2008-09-06, 01:15:04,VALID,1009.3,VALID,0,VALID,93.4307,VALID,0,VALID,24.0058,VALID,118,VALID,0.673828,
2008-09-06, 01:16:04,VALID,1009.3,VALID,0,VALID,93.3468,VALID,0,VALID,24.0058,VALID,132,VALID,0.850391,
2008-09-06, 01:17:04,VALID,1009.3,VALID,0,VALID,93.3163,VALID,0,VALID,23.9863,VALID,106,VALID,0.894531,
2008-09-06, 01:18:04,VALID,1009.29,VALID,0,VALID,93.3011,VALID,0,VALID,24.0058,VALID,107,VALID,0.810156,
2008-09-06, 01:19:04,VALID,1009.27,VALID,0,VALID,93.0723,VALID,0,VALID,24.0058,VALID,110,VALID,0.972266,
2008-09-06, 01:20:04,VALID,1009.3,VALID,0,VALID,93.0647,VALID,0,VALID,24.0271,VALID,110,VALID,0.846484,
2008-09-06, 01:21:04,VALID,1009.3,VALID,0,VALID,93.1333,VALID,0,VALID,24.0058,VALID,82,VALID,0.796094,
2008-09-06, 01:22:04,VALID,1009.3,VALID,0,VALID,93.2477,VALID,0,VALID,24.0058,VALID,88,VALID,0.430469,
2008-09-06, 01:23:04,VALID,1009.28,VALID,0,VALID,93.3545,VALID,0,VALID,23.9863,VALID,96,VALID,1.17148,
2008-09-06, 01:24:04,VALID,1009.29,VALID,0,VALID,93.1943,VALID,0,VALID,24.0076,VALID,102,VALID,0.994141,
2008-09-06, 01:25:04,VALID,1009.27,VALID,0,VALID,93.0952,VALID,0,VALID,24.0271,VALID,126,VALID,1.25039,
2008-09-06, 01:26:04,VALID,1009.28,VALID,0,VALID,93.0494,VALID,0,VALID,23.9863,VALID,91,VALID,0.780078,
2008-09-06, 01:27:04,VALID,1009.27,VALID,0,VALID,93.0723,VALID,0,VALID,24.0076,VALID,91,VALID,0.572266,
2008-09-06, 01:28:04,VALID,1009.27,VALID,0,VALID,93.0418,VALID,0,VALID,23.9668,VALID,101,VALID,0.786719,
2008-09-06, 01:29:04,VALID,1009.24,VALID,0,VALID,93.0647,VALID,0,VALID,23.9668,VALID,100,VALID,0.541016,
2008-09-06, 01:30:04,VALID,1009.27,VALID,0,VALID,93.0799,VALID,0,VALID,23.9881,VALID,108,VALID,0.417578,
2008-09-06, 01:31:04,VALID,1009.23,VALID,0,VALID,93.2325,VALID,0,VALID,23.965,VALID,108,VALID,0.199609,
2008-09-06, 01:32:04,VALID,1009.22,VALID,0,VALID,93.3697,VALID,0,VALID,23.9455,VALID,100,VALID,0.357031,
2008-09-06, 01:33:04,VALID,1009.24,VALID,0,VALID,93.3621,VALID,0,VALID,23.926,VALID,86,VALID,0.488672,
2008-09-06, 01:34:04,VALID,1009.22,VALID,0,VALID,93.4079,VALID,0,VALID,23.9065,VALID,89,VALID,0.335938,
2008-09-06, 01:35:04,VALID,1009.21,VALID,0,VALID,93.5299,VALID,0,VALID,23.9084,VALID,71,VALID,0.336719,
2008-09-06, 01:36:04,VALID,1009.22,VALID,0,VALID,93.629,VALID,0.105969,VALID,23.9065,VALID,71,VALID,0.0078125,
2008-09-06, 01:37:04,VALID,1009.21,VALID,0,VALID,93.6442,VALID,0,VALID,23.9084,VALID,100,VALID,0.533984,
2008-09-06, 01:38:04,VALID,1009.19,VALID,0,VALID,93.6595,VALID,0,VALID,23.9084,VALID,77,VALID,0.302344,
2008-09-06, 01:39:04,VALID,1009.2,VALID,0,VALID,93.6976,VALID,0,VALID,23.8676,VALID,77,VALID,0.302734,
2008-09-06, 01:40:04,VALID,1009.19,VALID,0,VALID,93.7205,VALID,0,VALID,23.8889,VALID,77,VALID,0.04375,
2008-09-06, 01:41:04,VALID,1009.17,VALID,0,VALID,93.6671,VALID,0,VALID,23.8694,VALID,106,VALID,0.358203,
2008-09-06, 01:42:04,VALID,1009.19,VALID,0,VALID,93.6595,VALID,0,VALID,23.8889,VALID,111,VALID,0.46875,
2008-09-06, 01:43:04,VALID,1009.19,VALID,0,VALID,93.6671,VALID,0,VALID,23.8481,VALID,106,VALID,0.233594,
2008-09-06, 01:44:04,VALID,1009.19,VALID,0,VALID,93.7053,VALID,0,VALID,23.8694,VALID,104,VALID,0.112109,
2008-09-06, 01:45:04,VALID,1009.16,VALID,0,VALID,93.8196,VALID,0.105969,VALID,23.9084,VALID,85,VALID,0.267578,
2008-09-06, 01:46:04,VALID,1009.13,VALID,0,VALID,93.7815,VALID,0,VALID,23.8481,VALID,85,VALID,0.517187,
2008-09-06, 01:47:04,VALID,1009.12,VALID,0,VALID,93.7968,VALID,0.105969,VALID,23.8481,VALID,85,VALID,0.391406,
2008-09-06, 01:48:04,VALID,1009.13,VALID,0,VALID,93.873,VALID,0.105969,VALID,23.8889,VALID,87,VALID,0.325,
2008-09-06, 01:49:04,VALID,1009.11,VALID,0,VALID,93.8654,VALID,0,VALID,23.8676,VALID,96,VALID,0.205469,
2008-09-06, 01:50:04,VALID,1009.12,VALID,0,VALID,93.8959,VALID,0.105969,VALID,23.8676,VALID,96,VALID,0.228516,
2008-09-06, 01:51:04,VALID,1009.13,VALID,0,VALID,93.8349,VALID,0,VALID,23.8499,VALID,86,VALID,0.376172,
2008-09-06, 01:52:04,VALID,1009.1,VALID,0,VALID,93.8425,VALID,0,VALID,23.8304,VALID,55,VALID,0.7125,
2008-09-06, 01:53:04,VALID,1009.1,VALID,0,VALID,93.8502,VALID,0,VALID,23.7896,VALID,68,VALID,0.651563,
2008-09-06, 01:54:04,VALID,1009.07,VALID,0,VALID,93.8807,VALID,0.105969,VALID,23.7896,VALID,54,VALID,0.500391,
2008-09-06, 01:55:04,VALID,1009.13,VALID,0,VALID,93.8883,VALID,0,VALID,23.7701,VALID,56,VALID,0.665625,
2008-09-06, 01:56:04,VALID,1009.12,VALID,0,VALID,93.8654,VALID,0,VALID,23.7701,VALID,74,VALID,0.584375,
2008-09-06, 01:57:05,VALID,1009.11,VALID,0,VALID,93.9035,VALID,0.105969,VALID,23.7701,VALID,75,VALID,0.567187,
2008-09-06, 01:58:05,VALID,1009.11,VALID,0,VALID,93.934,VALID,0,VALID,23.772,VALID,76,VALID,0.448828,
2008-09-06, 01:59:05,VALID,1009.1,VALID,0,VALID,93.9493,VALID,0.105969,VALID,23.7507,VALID,76,VALID,0.312891,
2008-09-06, 02:00:05,VALID,1009.11,VALID,0,VALID,93.9798,VALID,0.105969,VALID,23.7507,VALID,72,VALID,0.570703,
2008-09-06, 02:01:05,VALID,1009.09,VALID,0,VALID,93.9798,VALID,0,VALID,23.7525,VALID,66,VALID,0.513281,
2008-09-06, 02:02:05,VALID,1009.1,VALID,0,VALID,93.9874,VALID,0,VALID,23.733,VALID,73,VALID,0.582031,
2008-09-06, 02:03:05,VALID,1009.07,VALID,0,VALID,93.9569,VALID,0,VALID,23.733,VALID,58,VALID,0.510156,
2008-09-06, 02:04:05,VALID,1009.09,VALID,0,VALID,93.9874,VALID,0,VALID,23.7135,VALID,58,VALID,0.464063,
2008-09-06, 02:05:05,VALID,1009.1,VALID,0,VALID,93.9569,VALID,0,VALID,23.7153,VALID,93,VALID,0.423438,
2008-09-06, 02:06:05,VALID,1009.08,VALID,0,VALID,93.9569,VALID,0,VALID,23.7153,VALID,67,VALID,0.592188,
2008-09-06, 02:07:05,VALID,1009.08,VALID,0,VALID,93.9645,VALID,0,VALID,23.7135,VALID,68,VALID,0.317578,
2008-09-06, 02:08:05,VALID,1009.08,VALID,0,VALID,93.9645,VALID,0,VALID,23.6958,VALID,65,VALID,0.578906,
2008-09-06, 02:09:05,VALID,1009.06,VALID,0,VALID,93.9874,VALID,0,VALID,23.6745,VALID,65,VALID,0.43125,
2008-09-06, 02:10:05,VALID,1009.04,VALID,0,VALID,93.9874,VALID,0,VALID,23.6745,VALID,59,VALID,0.562109,
2008-09-06, 02:11:05,VALID,1009.03,VALID,0,VALID,94.0103,VALID,0,VALID,23.6745,VALID,48,VALID,0.492969,
2008-09-06, 02:12:05,VALID,1009.03,VALID,0,VALID,94.0179,VALID,0,VALID,23.6745,VALID,55,VALID,0.566406,
2008-09-06, 02:13:05,VALID,1008.98,VALID,0,VALID,94.0408,VALID,0,VALID,23.6356,VALID,54,VALID,0.552344,
2008-09-06, 02:14:05,VALID,1008.99,VALID,0,VALID,94.0408,VALID,0,VALID,23.655,VALID,54,VALID,0.477344,
2008-09-06, 02:15:05,VALID,1008.96,VALID,0,VALID,94.056,VALID,0,VALID,23.6373,VALID,55,VALID,0.483594,
2008-09-06, 02:16:05,VALID,1008.95,VALID,0,VALID,94.0637,VALID,0,VALID,23.6356,VALID,58,VALID,0.384375,
2008-09-06, 02:17:05,VALID,1008.94,VALID,0,VALID,94.1094,VALID,0,VALID,23.6356,VALID,59,VALID,0.156641,
2008-09-06, 02:18:05,VALID,1008.95,VALID,0,VALID,94.1323,VALID,0,VALID,23.6356,VALID,64,VALID,0.403516,
2008-09-06, 02:19:05,VALID,1008.92,VALID,0,VALID,94.1857,VALID,0,VALID,23.6161,VALID,75,VALID,0.528516,
2008-09-06, 02:20:05,VALID,1008.93,VALID,0,VALID,94.2391,VALID,0,VALID,23.6356,VALID,76,VALID,0.275391,
2008-09-06, 02:21:05,VALID,1008.94,VALID,0,VALID,94.3001,VALID,0,VALID,23.6161,VALID,90,VALID,0.452344,
2008-09-06, 02:22:05,VALID,1008.92,VALID,0,VALID,94.3153,VALID,0,VALID,23.655,VALID,90,VALID,0.414453,
2008-09-06, 02:23:05,VALID,1008.92,VALID,0,VALID,94.3763,VALID,0,VALID,23.6356,VALID,90,VALID,0.0910156,
2008-09-06, 02:24:05,VALID,1008.92,VALID,0,VALID,94.4068,VALID,0,VALID,23.6356,VALID,90,VALID,0,
2008-09-06, 02:25:05,VALID,1008.92,VALID,0,VALID,94.4297,VALID,0,VALID,23.6161,VALID,90,VALID,0.0167969,
2008-09-06, 02:26:05,VALID,1008.9,VALID,0,VALID,94.4678,VALID,0,VALID,23.6161,VALID,90,VALID,0.0566406,
2008-09-06, 02:27:05,VALID,1008.91,VALID,0,VALID,94.4602,VALID,0,VALID,23.6161,VALID,90,VALID,0.296484,
2008-09-06, 02:28:05,VALID,1008.9,VALID,0,VALID,94.4755,VALID,0,VALID,23.6161,VALID,90,VALID,0.140625,
2008-09-06, 02:29:05,VALID,1008.9,VALID,0,VALID,94.506,VALID,0,VALID,23.5966,VALID,90,VALID,0.207422,
2008-09-06, 02:30:05,VALID,1008.87,VALID,0,VALID,94.5136,VALID,0,VALID,23.6161,VALID,90,VALID,0.0480469,
2008-09-06, 02:31:05,VALID,1008.9,VALID,0,VALID,94.5288,VALID,0,VALID,23.6161,VALID,87,VALID,0.203516,
2008-09-06, 02:32:05,VALID,1008.89,VALID,0,VALID,94.5136,VALID,0,VALID,23.5966,VALID,86,VALID,0.264062,
2008-09-06, 02:33:05,VALID,1008.88,VALID,0,VALID,94.5365,VALID,0,VALID,23.5558,VALID,68,VALID,0.336328,
2008-09-06, 02:34:05,VALID,1008.86,VALID,0,VALID,94.5136,VALID,0,VALID,23.5771,VALID,70,VALID,0.34375,
2008-09-06, 02:35:05,VALID,1008.85,VALID,0,VALID,94.5136,VALID,0,VALID,23.5771,VALID,70,VALID,0.301562,
2008-09-06, 02:36:05,VALID,1008.8,VALID,0,VALID,94.5288,VALID,0,VALID,23.5771,VALID,70,VALID,0.310547,
2008-09-06, 02:37:05,VALID,1008.8,VALID,0,VALID,94.4907,VALID,0,VALID,23.5771,VALID,70,VALID,0.317187,
2008-09-06, 02:38:05,VALID,1008.78,VALID,0,VALID,94.4983,VALID,0,VALID,23.5771,VALID,70,VALID,0.181641,
2008-09-06, 02:39:05,VALID,1008.79,VALID,0,VALID,94.4678,VALID,0,VALID,23.5771,VALID,70,VALID,0.0964844,
2008-09-06, 02:40:05,VALID,1008.75,VALID,0,VALID,94.4755,VALID,0,VALID,23.5771,VALID,70,VALID,0.183203,
2008-09-06, 02:41:05,VALID,1008.76,VALID,0,VALID,94.445,VALID,0,VALID,23.5576,VALID,70,VALID,0.185547,
2008-09-06, 02:42:05,VALID,1008.72,VALID,0,VALID,94.4602,VALID,0,VALID,23.5966,VALID,70,VALID,0.238672,
2008-09-06, 02:43:05,VALID,1008.71,VALID,0,VALID,94.4526,VALID,0,VALID,23.5771,VALID,70,VALID,0.160156,
2008-09-06, 02:44:05,VALID,1008.71,VALID,0,VALID,94.4297,VALID,0,VALID,23.5771,VALID,70,VALID,0.1625,
2008-09-06, 02:45:05,VALID,1008.69,VALID,0,VALID,94.4526,VALID,0,VALID,23.5576,VALID,70,VALID,0.0078125,
2008-09-06, 02:46:05,VALID,1008.63,VALID,0,VALID,94.4831,VALID,0,VALID,23.5381,VALID,70,VALID,0,
2008-09-06, 02:47:05,VALID,1008.61,VALID,0,VALID,94.4831,VALID,0,VALID,23.5381,VALID,70,VALID,0,
2008-09-06, 02:48:05,VALID,1008.59,VALID,0,VALID,94.4678,VALID,0,VALID,23.5186,VALID,70,VALID,0.105859,
2008-09-06, 02:49:05,VALID,1008.59,VALID,0,VALID,94.5212,VALID,0,VALID,23.5381,VALID,70,VALID,0,
2008-09-06, 02:50:05,VALID,1008.55,VALID,0,VALID,94.5136,VALID,0.105969,VALID,23.5169,VALID,70,VALID,0.132813,
2008-09-06, 02:51:05,VALID,1008.54,VALID,0,VALID,94.5593,VALID,0,VALID,23.4992,VALID,70,VALID,0,
2008-09-06, 02:52:05,VALID,1008.54,VALID,0,VALID,94.5975,VALID,0,VALID,23.5186,VALID,70,VALID,0,
2008-09-06, 02:53:05,VALID,1008.53,VALID,0,VALID,94.5975,VALID,0.105969,VALID,23.4992,VALID,69,VALID,0,
2008-09-06, 02:54:05,VALID,1008.53,VALID,0,VALID,94.628,VALID,0,VALID,23.4992,VALID,69,VALID,0,
2008-09-06, 02:55:05,VALID,1008.51,VALID,0,VALID,94.6432,VALID,0,VALID,23.4797,VALID,69,VALID,0,
2008-09-06, 02:56:05,VALID,1008.48,VALID,0,VALID,94.6585,VALID,0,VALID,23.4797,VALID,69,VALID,0,
2008-09-06, 02:57:05,VALID,1008.46,VALID,0,VALID,94.689,VALID,0,VALID,23.4602,VALID,69,VALID,0,
2008-09-06, 02:58:05,VALID,1008.45,VALID,0,VALID,94.689,VALID,0,VALID,23.4407,VALID,69,VALID,0,
2008-09-06, 02:59:05,VALID,1008.46,VALID,0,VALID,94.689,VALID,0,VALID,23.4212,VALID,69,VALID,0,
2008-09-06, 03:00:05,VALID,1008.43,VALID,0,VALID,94.7119,VALID,0,VALID,23.4212,VALID,69,VALID,0,
2008-09-06, 03:01:05,VALID,1008.43,VALID,0,VALID,94.7424,VALID,0,VALID,23.384,VALID,69,VALID,0,
2008-09-06, 03:02:05,VALID,1008.42,VALID,0,VALID,94.7652,VALID,0,VALID,23.4035,VALID,69,VALID,0,
2008-09-06, 03:03:05,VALID,1008.42,VALID,0,VALID,94.7805,VALID,0,VALID,23.384,VALID,69,VALID,0,
2008-09-06, 03:04:05,VALID,1008.43,VALID,0,VALID,94.811,VALID,0,VALID,23.4035,VALID,69,VALID,0,
2008-09-06, 03:05:05,VALID,1008.41,VALID,0,VALID,94.8415,VALID,0,VALID,23.4035,VALID,69,VALID,0,
2008-09-06, 03:06:05,VALID,1008.43,VALID,0,VALID,94.8796,VALID,0,VALID,23.3823,VALID,69,VALID,0,
2008-09-06, 03:07:05,VALID,1008.46,VALID,0,VALID,94.8873,VALID,0,VALID,23.3628,VALID,69,VALID,0,
2008-09-06, 03:08:05,VALID,1008.44,VALID,0,VALID,94.9025,VALID,0,VALID,23.3823,VALID,69,VALID,0,
2008-09-06, 03:09:05,VALID,1008.44,VALID,0,VALID,94.9254,VALID,0,VALID,23.3628,VALID,69,VALID,0,
2008-09-06, 03:10:05,VALID,1008.44,VALID,0,VALID,94.9483,VALID,0,VALID,23.3433,VALID,69,VALID,0,
2008-09-06, 03:11:05,VALID,1008.43,VALID,0,VALID,94.9711,VALID,0,VALID,23.3433,VALID,69,VALID,0,
2008-09-06, 03:12:05,VALID,1008.44,VALID,0,VALID,94.994,VALID,0,VALID,23.3451,VALID,69,VALID,0,
2008-09-06, 03:13:05,VALID,1008.45,VALID,0,VALID,95.0016,VALID,0,VALID,23.3433,VALID,69,VALID,0,
2008-09-06, 03:14:05,VALID,1008.45,VALID,0,VALID,95.0169,VALID,0,VALID,23.3645,VALID,69,VALID,0,
2008-09-06, 03:15:05,VALID,1008.46,VALID,0,VALID,95.0398,VALID,0,VALID,23.3433,VALID,69,VALID,0,
2008-09-06, 03:16:05,VALID,1008.47,VALID,0,VALID,95.0703,VALID,0,VALID,23.3433,VALID,69,VALID,0,
2008-09-06, 03:17:05,VALID,1008.47,VALID,0,VALID,95.1008,VALID,0,VALID,23.3433,VALID,69,VALID,0,
2008-09-06, 03:18:05,VALID,1008.5,VALID,0,VALID,95.1084,VALID,0,VALID,23.3433,VALID,69,VALID,0,
2008-09-06, 03:19:05,VALID,1008.5,VALID,0,VALID,95.1236,VALID,0,VALID,23.3238,VALID,69,VALID,0,
2008-09-06, 03:20:05,VALID,1008.53,VALID,0,VALID,95.116,VALID,0,VALID,23.3628,VALID,69,VALID,0,
2008-09-06, 03:21:05,VALID,1008.55,VALID,0,VALID,95.1389,VALID,0,VALID,23.3043,VALID,47,VALID,0.283594,
2008-09-06, 03:22:05,VALID,1008.56,VALID,0,VALID,95.1618,VALID,0,VALID,23.3433,VALID,46,VALID,0.327344,
2008-09-06, 03:23:05,VALID,1008.54,VALID,0,VALID,95.1542,VALID,0,VALID,23.3433,VALID,9,VALID,0.423047,
2008-09-06, 03:24:05,VALID,1008.59,VALID,0,VALID,95.177,VALID,0,VALID,23.3451,VALID,339,VALID,0.453516,
2008-09-06, 03:25:05,VALID,1008.6,VALID,0,VALID,95.1618,VALID,0,VALID,23.3238,VALID,324,VALID,0.498437,
2008-09-06, 03:26:05,VALID,1008.6,VALID,0,VALID,95.1923,VALID,0,VALID,23.384,VALID,321,VALID,0.495703,
2008-09-06, 03:27:05,VALID,1008.61,VALID,0,VALID,95.1999,VALID,0,VALID,23.3628,VALID,320,VALID,0.429688,
2008-09-06, 03:28:05,VALID,1008.57,VALID,0,VALID,95.2228,VALID,0,VALID,23.3823,VALID,311,VALID,0.523828,
2008-09-06, 03:29:05,VALID,1008.59,VALID,0,VALID,95.2075,VALID,0,VALID,23.4035,VALID,311,VALID,0.382813,
2008-09-06, 03:30:05,VALID,1008.62,VALID,0,VALID,95.2152,VALID,0,VALID,23.4017,VALID,311,VALID,0.344531,
2008-09-06, 03:31:05,VALID,1008.61,VALID,0,VALID,95.2152,VALID,0,VALID,23.4035,VALID,325,VALID,0.30625,
2008-09-06, 03:32:05,VALID,1008.6,VALID,0,VALID,95.2228,VALID,0,VALID,23.423,VALID,329,VALID,0.482422,
2008-09-06, 03:33:05,VALID,1008.61,VALID,0,VALID,95.2304,VALID,0,VALID,23.4035,VALID,329,VALID,0.260547,
2008-09-06, 03:34:05,VALID,1008.6,VALID,0,VALID,95.2228,VALID,0,VALID,23.4035,VALID,329,VALID,0.189063,
2008-09-06, 03:35:05,VALID,1008.6,VALID,0,VALID,95.2075,VALID,0,VALID,23.3433,VALID,329,VALID,0.103516,
2008-09-06, 03:36:05,VALID,1008.58,VALID,0,VALID,95.2152,VALID,0,VALID,23.3433,VALID,329,VALID,0.140234,
2008-09-06, 03:37:05,VALID,1008.61,VALID,0,VALID,95.2152,VALID,0,VALID,23.3645,VALID,329,VALID,0.0925781,
2008-09-06, 03:38:05,VALID,1008.54,VALID,0,VALID,95.2228,VALID,0,VALID,23.3451,VALID,329,VALID,0.151562,
2008-09-06, 03:39:05,VALID,1008.57,VALID,0,VALID,95.2228,VALID,0,VALID,23.3238,VALID,329,VALID,0.182812,
2008-09-06, 03:40:05,VALID,1008.53,VALID,0,VALID,95.2228,VALID,0,VALID,23.3238,VALID,329,VALID,0.286328,
2008-09-06, 03:41:05,VALID,1008.54,VALID,0,VALID,95.2228,VALID,0,VALID,23.3645,VALID,329,VALID,0.286328,
2008-09-06, 03:42:05,VALID,1008.52,VALID,0,VALID,95.238,VALID,0,VALID,23.3451,VALID,329,VALID,0,
2008-09-06, 03:43:05,VALID,1008.51,VALID,0,VALID,95.2533,VALID,0,VALID,23.3451,VALID,329,VALID,0.15,
2008-09-06, 03:44:05,VALID,1008.53,VALID,0,VALID,95.2609,VALID,0,VALID,23.3043,VALID,329,VALID,0,
2008-09-06, 03:45:05,VALID,1008.53,VALID,0,VALID,95.238,VALID,0,VALID,23.3256,VALID,329,VALID,0.00820312,